INTELSAT 33E DEB, 61995

Orbit data source: Space-Track

INTELSAT 33E DEB, 61995 is space debris in GEO originally from a launch on Wed, 24 Aug 2016 UTC launched from the French Guiana (FRGUI). Debris objects in space refer to the collection of defunct objects orbiting the Earth. Examples of debris include non-operational satellites, rocket bodies, and fragments generated from explosions, collisions, or faulty payload assembly.

Not visible in the next 10 days
Identifier
61995, 2016-053M
Orbit
GEO
Country
Flag of USUS / ITSO
Related business
Manufacturer
Boeing/ES
Mission
Spacecraft
Bus & Motor
Unknown
Mass
Unknown
Launch date (UTC)
Icon of a cake. It is the launch day of the satellite!2016-08-24 (10 years ago)
Launch vehicle
Unknown
Launch site
French Guiana (FRGUI)
Object type
Payload
Rocket body
Debris
Shape & HBR
Unknown shape, 1.1 m
Radar Cross Section
RCS unknown

Expand to show TLE details & history
Last TLE update: 1 day ago

TLE from 1 day ago
0 INTELSAT 33E DEB
1 61995U 16053M   26234.98585541 -.00000308  00000-0  00000-0 0  9999
2 61995   1.7094  81.8737 0052725 287.2884  72.4565  1.01038185  6807
Epoch: 2026-08-22T23:39Z
TLE epoch observation values (Epoch: 2026-08-22T23:39:37.907Z)
Latitude
Longitude
116.0036°
Altitude
35,507.954 km
Speed
3.087 km/s
True Right ascension
05h 28m 47s
True Declination
0° 00' 00"
Sunlit
Object was in daylight at epoch
Visualization orbit readout
Latitude
Unknown
Longitude
Unknown
Altitude
Unknown
Speed
Unknown
Apparent Right ascension
Unknown
Apparent Declination
Unknown
Sunlit
N/A
Visualization observer readout
Local Sidereal Time
15:53:05
Azimuth
Unknown
Elevation
Unknown
Doppler factor
Unknown
Orbital elements
Apogee altitude
35,795.372 km
Perigee altitude
35,352.985 km
Semi-major axis
41,952.316 km
Eccentricity
0.00527
Inclination
1.7094°
RAAN
81.8737°
Arg. of periapsis
287.2884°
True anomaly
73.03372°
Mean anomaly
72.4565°
Eccentric anomaly
72.745°
Mean motion
0.25259 °/min
Orbital period
1,425.26 mins
BSTAR
0
Loading maneuver chart data...
Computing Atmospheric mass density...
Loading historical data...
Loading historical data...
Loading historical data...
Loading historical data...
Loading historical data...
Loading historical data...
Loading historical data...

Documentation

Showing up to 5 results
|